Torna al catalogo

STARLINK-31629

AttivoComunicazioniVLEO
NORAD 59255·PAYLOAD·🇺🇸 United States

Lanciato Mar 19, 2024 da Vandenberg Space Force Base

Loading…

Prossimi Passaggi (prossime 24 ore)

TLE

AggiornatoSource: CelesTrak SupGP

Epoca: Sep 15, 2026, 02:38 UTC

1 59255C 24050B   26258.11020833  .00030065  00000+0  88825-3 0  2583
2 59255  53.1611  20.6848 0001095  86.8224  11.4298 15.34376527    17

Traccia STARLINK-31629 in tempo reale con AllMySat

Download on the App Store